Back to catalog

SL-12 DEB

AliveHEO
NORAD 29317·DEBRIS·🇷🇺 Russia

Launched May 31, 1989 from Baikonur Cosmodrome

Loading…

Next Passes (next 24 hours)

TLE

FreshSource: Space-Track

Epoch: Sep 13, 2026, 09:34 UTC

1 29317U 89039Y   26256.39861912  .00000091  00000-0  38586-3 0  9994
2 29317  65.0832 237.2094 5370749  88.2393 329.5404  4.63175286190530

Track SL-12 DEB in real time with AllMySat

Download on the App Store